Terminal Aerodrome Forecast
Issued by NWS Charleston, WV

Current Version | Previous Version | Graphics & Text | Print | Product List | Glossary On
Versions: 1 2 3 4 5 6 7 8 9 10 11 12 13 14 15 16 17 18 19 20 21 22 23 24 25 26 27 28 29 30 31 32
000
FTUS41 KRLX 181500 AAB
TAFBKW
TAF AMD
KBKW 181559Z 1816/1912 28012G22KT P6SM BKN035
     FM181700 31010G22KT P6SM BKN025
      TEMPO 1817/1818 3SM -SHRA BR BKN035
     FM181800 30015G26KT P6SM BKN015
     FM182300 30017G29KT P6SM BKN010=

USA.gov is the U.S. government's official web portal to all federal, state and local government web resources and services.